GFSSW_925_spd_021.txt.gz
Wind_Speed
23 23 22 21 21 21 24 25 24 22 21 20 21 22 21 24 23 8 12 11 13 13 13 12 17 16 16 16 19 13 9 7 8 8 14 10 12 7 11 13 9 4 18 22 25
24 24 23 23 23 22 24 26 25 25 23 22 20 21 21 23 20 23 19 14 17 13 14 19 16 16 14 15 15 10 6 3 9 10 17 11 11 11 12 14 12 9 22 27 25
24 24 24 24 24 23 26 27 26 26 26 23 22 20 19 18 18 9 12 4 17 17 19 19 17 15 17 16 15 15 3 6 12 9 17 12 11 11 10 12 15 14 20 23 23
25 26 26 26 25 25 26 26 26 26 26 25 24 21 17 8 6 10 5 5 3 17 21 19 19 19 19 17 14 16 22 4 7 7 7 13 14 10 7 13 17 16 21 21 20
26 27 27 28 28 28 28 29 28 26 25 26 24 20 7 10 18 10 9 7 9 16 23 18 22 19 20 17 16 14 12 4 4 9 10 16 13 11 10 8 15 18 21 22 20
27 28 30 30 31 29 31 31 30 28 25 24 22 10 7 19 16 9 9 11 13 18 21 22 19 19 18 21 15 12 14 7 4 8 9 9 15 10 14 10 15 18 20 21 20
28 30 33 33 34 32 32 31 31 27 23 19 15 7 13 19 6 8 13 15 13 17 19 25 26 19 20 20 18 14 9 12 9 10 11 11 16 15 19 13 16 18 18 20 20
30 31 34 34 34 35 38 33 25 22 13 9 5 8 9 7 13 20 16 18 15 16 20 20 24 23 20 20 19 18 17 16 14 14 11 17 16 17 18 16 16 17 17 18 20
33 33 35 34 33 38 39 24 21 8 1 6 8 10 16 8 13 17 19 20 18 16 18 19 17 23 17 19 17 15 17 20 15 16 13 16 15 18 17 17 16 16 17 18 19
34 34 35 36 35 38 29 19 11 3 3 6 12 7 12 14 12 12 13 18 15 14 13 18 14 20 19 19 18 22 21 20 18 16 13 15 5 17 16 17 17 16 16 18 19
35 37 37 37 38 29 23 5 5 7 15 15 7 13 8 8 9 12 14 18 17 17 18 21 18 24 27 25 24 23 21 18 15 24 19 17 14 13 15 16 16 19 17 19 20
36 37 38 39 33 9 13 9 7 8 14 20 25 27 27 17 12 15 17 17 18 19 21 17 24 25 25 26 25 28 23 17 13 21 20 18 19 18 17 15 16 17 20 20 20
37 38 40 37 22 6 13 7 3 15 9 16 26 25 25 23 23 19 20 22 21 23 24 23 23 25 25 26 27 27 26 18 18 19 17 16 18 19 17 19 16 16 17 21 22
36 38 39 40 12 20 8 4 9 11 7 13 10 10 18 18 20 26 25 23 18 23 24 25 20 25 27 29 27 25 25 24 19 14 15 19 16 22 19 21 20 19 18 20 23
36 38 38 27 20 10 7 11 11 8 7 11 14 17 17 20 10 24 31 26 24 22 19 25 22 25 29 29 28 25 25 23 23 19 20 23 18 11 21 19 19 21 21 21 21
35 38 40 17 13 17 15 9 8 8 13 9 11 15 19 22 13 11 25 26 21 22 23 25 22 27 21 26 24 24 25 24 24 18 16 23 18 20 16 18 19 22 22 22 22
36 39 34 21 11 3 10 9 7 11 3 12 16 19 22 22 22 16 23 28 25 24 24 23 28 23 22 23 25 28 24 16 19 18 20 25 19 23 18 18 18 19 21 23 22
38 35 22 17 15 13 11 9 17 12 29 3 15 20 24 21 22 21 20 24 31 26 18 19 21 30 21 27 27 31 29 19 25 17 20 25 24 21 19 11 15 16 15 20 22
37 21 18 16 11 15 10 17 15 22 17 19 14 19 24 23 18 23 25 25 29 30 26 22 25 22 27 28 29 30 28 28 27 24 19 21 19 22 7 18 18 14 17 14 21
26 26 21 11 8 13 12 30 22 32 16 17 25 19 23 25 20 22 24 24 27 31 28 22 17 23 27 24 26 32 24 26 23 28 27 24 22 17 19 16 17 19 16 14 16
16 6 7 3 8 9 16 24 28 35 33 25 24 26 26 24 27 24 24 21 25 27 27 25 19 15 24 30 30 21 27 23 25 24 21 20 19 21 18 18 20 22 22 17 19
12 7 8 5 9 9 18 27 25 30 27 28 25 29 26 27 26 26 28 22 23 24 31 26 17 17 22 23 26 27 29 32 17 28 20 22 19 14 17 15 12 16 16 20 17
7 11 20 11 10 14 22 28 27 28 29 30 28 30 26 28 23 23 16 23 8 17 24 23 21 17 19 19 23 30 31 31 31 22 26 22 20 21 7 13 21 18 17 14 9
7 7 7 10 12 18 20 21 22 20 21 22 26 27 29 30 26 22 25 21 14 15 6 11 22 26 19 23 17 28 28 31 29 23 22 26 25 22 22 15 9 9 16 12 8
5 11 10 10 13 10 15 21 12 19 23 23 25 30 28 29 27 28 26 23 20 17 20 17 21 23 27 26 23 23 26 27 33 29 28 25 29 27 25 24 20 20 17 16 17
5 6 7 13 16 18 18 21 19 19 14 21 24 27 22 27 26 26 24 25 20 22 23 20 17 19 21 24 26 24 24 30 27 29 29 29 31 23 27 24 19 18 18 20 15
10 16 8 9 17 14 13 19 27 15 9 22 9 13 22 18 20 20 20 22 22 22 23 24 18 19 22 20 18 22 26 24 23 28 26 28 28 26 28 25 23 21 21 20 20

GFSSW_925_spd_024.txt.gz
Wind_Speed
25 25 24 22 22 21 22 24 24 22 22 23 24 23 22 24 26 11 13 14 23 15 9 9 17 22 24 16 21 10 2 13 9 14 15 10 12 12 18 14 15 10 17 26 26
27 26 26 26 25 24 25 25 25 24 23 23 23 24 23 24 22 24 30 27 20 15 12 19 17 19 15 18 4 7 6 6 17 5 12 11 13 15 12 14 8 24 24 29 26
26 26 27 28 28 27 27 26 27 26 25 23 23 23 22 21 13 10 10 19 20 20 19 21 22 17 19 17 12 13 6 16 30 15 14 11 17 11 19 13 13 26 24 22 23
26 27 28 29 29 29 28 29 29 28 27 24 23 23 20 7 7 8 15 10 4 16 20 24 20 20 19 18 20 12 16 24 16 10 9 13 17 12 13 15 19 22 23 21 20
27 27 28 30 31 31 30 32 32 30 28 25 23 20 7 9 23 13 12 10 6 11 21 20 21 20 20 18 20 17 26 21 7 11 9 9 15 17 8 20 19 23 24 22 20
31 31 31 32 33 33 31 35 33 31 28 24 21 13 6 17 17 12 19 13 14 16 21 22 20 18 21 20 21 18 11 13 4 9 7 15 16 14 15 17 21 22 23 21 21
34 34 33 33 34 35 34 35 31 30 24 20 13 6 12 24 16 23 16 19 17 19 18 24 25 19 19 20 20 21 18 7 9 10 9 11 17 12 19 15 20 20 21 21 20
35 36 35 35 38 38 40 37 28 24 21 13 7 8 10 18 22 26 15 18 20 19 20 19 22 20 21 18 22 22 18 13 19 15 11 14 8 14 21 17 19 20 20 20 20
35 37 37 36 38 38 42 32 26 21 8 5 6 11 13 10 22 24 25 21 21 20 18 19 19 19 19 19 18 22 17 19 9 13 16 16 9 10 15 16 19 18 19 19 18
34 37 39 38 38 38 38 29 18 5 5 7 16 9 18 17 17 20 22 22 16 17 17 17 15 16 18 17 17 21 21 18 16 17 18 14 14 12 22 19 19 19 19 18 20
35 38 41 38 37 36 31 12 4 6 12 13 11 12 17 20 19 13 20 25 20 18 19 20 15 21 25 25 23 23 20 24 12 7 17 18 19 21 27 23 19 20 18 20 20
36 38 41 40 37 23 15 7 8 9 15 21 28 26 34 16 12 13 18 17 21 20 21 19 24 25 23 26 26 27 27 24 15 24 24 17 27 29 28 20 19 20 19 19 19
37 38 40 41 34 12 16 20 11 16 9 19 31 28 32 25 21 18 21 19 19 23 23 24 23 24 25 25 27 28 27 22 16 20 22 18 19 21 22 20 19 19 21 20 19
38 37 38 42 14 24 12 7 14 15 7 11 17 23 27 29 31 26 22 20 21 24 24 24 25 26 26 29 28 26 26 26 22 17 12 16 13 12 16 22 21 20 19 23 22
37 36 37 31 24 11 15 16 15 11 7 1 16 6 16 29 6 31 34 25 26 25 18 24 24 27 27 30 30 26 26 26 25 21 16 22 8 15 21 18 24 22 21 20 23
37 37 38 19 11 22 20 18 12 6 12 7 11 12 18 26 29 14 31 28 23 25 25 24 22 27 25 25 27 25 24 25 22 19 15 20 14 21 20 24 22 22 22 22 21
38 40 41 24 10 15 15 9 6 11 9 14 16 16 21 21 27 17 25 29 26 24 24 25 27 25 25 24 26 28 25 15 18 17 17 22 23 15 18 23 21 10 18 22 21
40 42 27 21 19 18 13 7 16 12 28 11 12 20 22 23 25 28 23 25 31 28 19 22 21 28 21 28 24 25 25 16 20 17 19 23 21 15 24 19 14 22 35 25 23
41 28 27 21 22 16 9 15 12 19 17 19 24 20 23 25 24 27 28 26 29 31 25 21 24 21 31 23 26 27 25 26 26 23 17 18 23 23 18 19 24 25 10 13 25
28 30 26 20 12 12 12 28 18 25 27 25 26 22 26 25 28 28 28 28 27 32 31 26 19 24 25 26 28 29 19 24 20 26 25 21 21 12 19 20 22 18 22 15 19
17 8 27 6 9 9 16 23 25 30 31 31 29 29 31 28 27 29 29 27 30 27 29 29 23 20 25 28 27 20 23 24 22 20 17 17 16 16 16 24 22 20 20 21 15
12 10 10 9 10 10 17 27 26 30 31 32 29 31 32 31 29 29 32 28 22 27 30 27 19 20 26 26 29 28 28 28 17 22 18 18 16 13 14 14 20 16 15 15 13
8 13 27 27 16 14 22 29 29 28 27 30 31 31 30 30 28 30 31 27 24 26 26 22 23 17 23 24 25 31 28 26 26 22 20 18 17 19 8 12 18 14 16 17 16
5 6 11 11 17 19 19 19 25 25 27 28 21 22 29 31 28 29 30 29 26 30 5 25 23 26 19 21 18 24 29 28 26 18 21 20 20 25 12 20 16 12 14 8 5
5 6 17 12 16 16 16 15 21 24 23 22 18 21 15 11 25 29 30 30 31 19 12 16 17 22 28 30 26 27 29 28 26 26 22 22 21 23 24 12 16 8 6 6 6
4 8 9 15 21 22 20 17 24 21 18 25 19 21 20 18 14 23 26 25 24 22 21 19 16 18 25 28 29 27 27 28 30 29 28 24 24 19 17 18 13 18 19 12 11
10 12 4 9 17 16 16 21 15 15 13 19 12 10 20 18 21 27 28 30 29 22 16 20 16 16 20 25 24 26 28 24 24 25 22 20 22 15 16 15 12 7 8 14 16

GFSSW_925_spd_030.txt.gz
Wind_Speed
24 24 24 25 25 26 26 26 26 25 26 27 25 24 22 23 25 16 8 27 17 23 12 15 15 16 18 9 5 4 3 3 4 7 6 21 16 13 8 21 11 6 11 29 36
26 27 27 27 27 27 27 27 28 27 28 27 26 25 22 22 20 16 37 33 28 20 20 19 11 14 5 9 5 5 3 6 6 5 1 21 24 17 12 20 7 15 17 31 32
27 29 30 30 30 30 30 30 30 28 30 28 26 24 20 16 5 9 12 12 20 26 22 21 14 7 6 5 7 7 6 6 6 10 6 23 24 19 25 17 21 24 24 26 30
30 32 32 32 32 32 33 33 32 30 32 30 26 21 14 3 6 2 8 2 16 23 19 13 6 6 6 9 6 4 9 11 5 6 9 20 21 20 23 13 24 25 29 27 22
33 35 36 35 34 35 35 36 35 34 35 29 21 15 3 2 13 18 3 4 13 20 17 9 8 6 6 5 9 4 6 14 13 10 12 12 18 19 14 22 22 23 26 25 24
36 37 38 37 36 37 38 38 36 36 35 28 16 7 2 8 15 15 15 17 10 19 13 11 7 8 4 7 8 8 15 17 15 15 9 11 7 7 17 23 24 26 27 25 23
37 38 40 39 37 38 40 39 39 38 35 23 10 4 5 21 8 3 16 22 24 19 6 21 22 3 3 7 4 6 6 14 16 12 4 15 6 15 24 26 26 25 24 23 22
37 39 42 40 38 40 41 41 41 38 22 13 7 7 9 11 15 26 20 28 25 26 23 18 21 11 5 6 7 3 3 4 14 19 10 10 10 22 26 26 23 22 20 21 22
39 41 43 44 42 43 44 40 35 10 6 8 9 6 11 8 8 27 24 14 25 26 25 22 6 7 5 4 5 2 5 7 11 9 16 5 4 24 23 24 22 21 20 16 15
40 41 44 44 44 44 46 33 9 7 7 5 2 2 8 6 5 8 22 24 6 9 8 5 4 6 1 4 7 5 3 6 6 2 17 5 8 22 23 24 24 22 20 20 17
39 40 44 47 45 48 32 9 4 2 3 8 7 7 13 6 12 9 20 14 6 5 9 6 5 13 11 7 6 4 5 8 11 4 4 17 19 20 25 22 22 21 21 21 23
40 41 44 49 49 21 10 4 1 13 12 15 23 26 37 7 8 8 22 9 7 8 6 4 13 8 8 7 10 9 13 17 9 10 8 10 20 19 25 26 27 24 22 23 20
40 41 45 50 36 5 25 8 26 31 5 8 14 16 13 18 15 19 9 8 8 8 12 12 8 12 10 11 11 15 16 15 9 7 1 8 3 3 9 14 17 22 24 22 24
39 41 44 52 8 34 13 25 29 22 4 8 6 8 10 10 10 20 12 15 6 17 8 10 12 13 18 14 14 13 15 14 8 4 7 6 4 6 10 9 14 20 21 22 23
39 41 42 42 19 10 18 27 35 2 5 4 5 6 8 12 7 13 23 5 14 8 8 10 19 19 16 18 18 14 12 10 10 6 4 4 4 7 9 12 11 18 24 23 24
37 39 41 28 17 22 20 34 7 4 8 7 5 6 7 5 3 3 11 6 5 12 10 18 8 15 16 13 17 14 7 8 3 5 8 14 13 6 11 12 17 17 20 26 24
37 37 41 30 8 13 23 6 3 5 5 3 5 8 6 8 7 4 21 17 16 11 20 10 18 6 10 10 11 11 7 5 7 8 10 10 6 12 18 19 24 23 22 25 25
38 40 40 36 32 19 10 3 6 5 9 8 13 13 4 4 7 5 6 19 17 4 6 12 9 19 11 17 15 9 15 9 10 4 5 6 9 13 15 17 26 27 22 22 24
36 37 29 30 16 13 3 4 7 5 5 15 11 4 7 6 14 8 16 14 21 16 10 8 13 4 15 13 17 10 10 12 6 3 2 4 7 6 10 12 24 25 22 23 27
26 14 18 17 7 14 3 4 5 3 13 10 3 4 10 13 12 18 6 7 13 16 13 8 4 12 18 17 17 18 7 4 2 15 17 5 6 8 8 14 14 22 25 26 23
10 4 16 15 24 3 6 7 5 18 10 7 13 14 16 13 5 8 11 15 1 7 21 19 9 10 5 15 17 11 11 3 6 8 12 7 16 9 10 10 14 22 26 26 24
7 4 10 35 4 2 7 6 10 14 19 12 10 15 9 11 10 8 11 10 19 18 12 13 15 16 25 12 12 20 15 11 9 7 6 16 25 3 10 9 11 19 25 25 17
3 4 14 6 4 6 10 9 7 7 5 6 4 4 6 4 5 7 10 10 22 15 8 8 6 10 9 14 16 8 13 19 5 5 18 9 8 7 5 6 9 9 8 10 8
2 4 4 3 4 9 11 7 10 12 10 7 8 2 6 2 4 6 11 10 21 16 20 11 6 12 19 13 6 8 17 12 19 15 11 22 5 6 1 7 9 14 15 16 13
1 4 2 5 6 11 8 8 12 9 7 5 4 8 4 3 5 4 7 15 12 7 13 6 6 4 13 15 21 14 12 21 22 24 22 16 13 10 9 9 8 14 14 14 19
2 3 3 5 7 7 5 5 11 8 6 7 6 10 5 4 6 13 16 8 4 7 9 6 5 7 7 10 22 24 20 19 23 23 19 6 7 10 13 9 7 11 13 14 10
4 8 3 4 4 5 3 9 15 7 10 5 9 7 9 12 12 12 10 13 8 5 13 4 4 8 6 6 18 20 31 17 11 16 17 15 10 9 8 8 10 10 8 12 9

GFSSW_925_spd_033.txt.gz
Wind_Speed
24 25 25 26 25 25 25 25 25 24 23 24 24 21 20 22 23 14 8 22 19 16 24 23 17 17 19 3 3 2 1 4 6 10 5 12 7 10 3 13 3 5 8 21 31
25 26 26 27 26 26 26 27 27 27 26 26 26 21 19 19 18 14 34 28 21 31 31 23 12 20 5 7 4 4 4 6 5 8 15 16 15 15 6 13 1 9 16 31 32
26 27 28 28 27 27 27 27 28 28 26 26 26 21 16 11 5 8 6 3 24 36 28 28 22 14 5 4 7 5 6 4 5 7 19 22 13 7 15 10 7 20 23 24 27
28 29 31 31 30 29 29 30 30 30 28 27 23 18 10 0 6 1 7 6 22 32 25 19 10 8 7 9 8 4 14 13 5 5 18 19 14 5 18 10 17 24 29 25 21
33 35 36 37 36 35 35 35 33 32 30 27 21 11 2 3 11 20 9 10 27 32 23 9 8 7 7 6 6 9 20 7 4 4 17 16 19 13 21 8 17 20 23 24 21
37 38 38 39 41 40 39 37 39 36 31 26 16 3 2 9 12 11 8 13 23 29 16 11 9 9 5 5 9 6 16 17 9 10 18 14 13 10 16 19 20 23 24 22 22
39 40 39 41 43 43 42 43 41 36 32 19 11 7 3 18 5 4 3 19 19 27 8 20 16 9 7 4 5 7 8 6 8 6 11 14 10 19 15 22 22 23 22 22 22
39 40 41 44 47 47 47 43 38 30 13 7 13 9 8 11 10 28 24 12 16 19 19 18 25 6 3 3 6 3 1 2 7 8 7 17 20 16 22 24 22 22 21 21 22
40 41 43 46 49 53 47 39 22 5 5 15 12 6 10 4 5 19 21 14 22 25 21 11 7 6 3 4 3 4 4 6 8 9 6 10 5 12 22 22 22 21 21 20 19
39 41 44 48 49 51 36 16 5 9 8 4 3 1 6 4 4 5 16 24 5 6 3 6 5 5 3 4 8 5 4 5 6 3 8 7 6 19 21 22 23 22 21 20 20
40 42 46 50 52 31 36 4 4 2 2 7 5 5 7 8 9 5 10 12 4 5 7 6 5 11 12 6 6 4 3 5 3 1 2 4 7 21 22 18 21 20 20 21 22
40 43 46 50 47 11 29 4 7 4 13 15 23 21 34 2 5 5 16 8 7 9 6 3 15 9 9 9 9 6 7 13 3 7 4 7 10 19 23 27 27 25 22 22 21
39 41 45 48 33 12 19 4 19 22 5 8 9 9 7 19 13 15 10 7 6 9 9 12 6 10 9 7 8 6 10 11 9 2 3 5 2 12 20 13 14 18 22 21 22
38 39 42 50 8 30 12 24 32 12 4 8 5 7 6 8 8 17 15 11 4 18 7 7 9 9 7 8 9 9 7 7 5 4 3 6 4 7 17 18 16 16 18 20 21
38 39 39 39 18 11 14 33 33 3 6 3 3 7 6 11 2 11 18 5 12 9 9 10 14 17 13 19 9 10 6 6 3 4 1 5 0 6 17 19 21 19 21 22 22
38 39 40 24 19 23 20 36 7 3 9 5 3 3 4 4 5 5 9 3 6 5 6 17 5 14 11 9 14 4 3 4 1 3 6 16 8 7 12 25 24 21 23 25 23
39 40 40 23 8 20 24 8 3 5 5 4 4 6 2 3 4 4 16 13 12 10 16 8 20 4 7 9 6 5 7 3 3 4 10 9 6 14 9 21 26 25 26 27 25
39 39 35 26 20 20 6 3 6 3 3 5 6 9 2 11 4 7 11 19 14 4 8 8 5 18 7 11 11 8 13 6 7 3 6 4 9 8 15 11 19 25 26 25 24
36 35 19 17 19 3 3 4 6 3 4 9 7 4 6 6 9 10 8 13 14 11 9 11 10 5 13 7 16 6 11 12 3 2 3 5 8 5 9 11 10 14 15 22 24
29 15 13 13 20 4 4 4 4 3 7 4 4 5 5 9 8 9 6 4 10 5 3 6 2 8 9 8 9 14 8 4 2 11 12 4 7 7 11 17 11 13 13 20 23
11 4 6 23 14 3 2 6 6 10 8 7 4 4 2 5 5 3 4 5 13 10 8 1 3 4 7 8 21 5 8 3 6 6 7 3 11 8 10 13 12 15 17 21 22
4 3 17 24 5 3 4 13 6 15 17 6 4 6 4 5 2 2 5 6 13 10 5 6 3 15 18 6 15 15 11 9 5 12 8 13 11 3 17 14 10 11 13 18 22
3 3 9 7 4 6 10 10 12 14 8 7 4 5 4 2 2 2 5 6 17 12 6 8 4 1 7 3 4 10 11 17 15 2 19 10 6 7 9 7 10 11 12 12 16
3 4 4 4 3 3 6 4 10 10 13 7 3 6 5 4 1 4 6 3 12 10 10 3 3 3 7 5 2 7 9 17 17 11 18 19 5 3 6 11 11 9 10 12 14
0 3 1 4 4 5 5 4 10 7 9 7 4 7 3 1 2 0 5 9 7 7 5 4 2 4 7 14 16 15 13 25 21 22 16 15 13 13 9 10 10 10 7 6 8
1 1 1 3 6 4 5 1 3 5 4 6 7 11 4 4 3 5 4 3 5 5 6 3 3 5 6 11 13 16 18 24 30 23 13 11 7 9 15 8 7 11 10 10 11
4 4 2 2 5 3 3 2 12 12 5 6 10 14 4 4 4 9 9 7 8 5 2 2 2 5 4 10 12 11 28 21 17 17 19 19 9 9 8 9 13 13 10 11 13